Temp
13 13 14 14 14 14 14 13 13 13 13 13 13 12 12 12 12 12 11 11 11 11 11 11 11 12 12 12 12 12 12 12 12 12 12 12 12 12 12 12 12 12
13 14 14 14 14 13 13 13 13 12 12 12 13 12 12 12 11 12 11 11 11 10 11 11 11 11 11 11 11 11 11 11 12 12 12 12 12 12 12 12 12 12
13 14 14 13 13 13 13 13 13 12 12 13 13 13 12 12 12 12 11 11 10 10 11 11 11 11 11 11 11 11 11 11 11 11 11 12 12 12 12 12 12 12
13 13 13 13 13 13 13 13 13 13 13 13 13 13 13 12 12 12 12 11 10 11 11 11 11 11 12 11 11 11 11 11 11 11 11 11 12 12 12 12 12 12
13 13 13 13 13 13 13 13 13 13 13 13 13 13 13 13 13 13 13 12 11 11 11 12 12 12 12 12 11 10 11 11 11 11 11 11 11 12 12 12 12 12
13 13 13 13 13 14 13 13 13 13 13 13 13 13 13 13 13 13 13 13 12 12 12 12 12 12 12 12 11 11 11 11 11 11 11 11 11 11 12 12 12 12
13 13 13 13 13 13 13 13 13 12 13 13 13 13 13 13 13 13 13 13 13 12 12 12 12 12 12 12 12 11 11 11 11 11 11 11 11 11 11 11 12 12
13 12 13 13 12 12 12 12 13 13 13 14 14 13 13 13 13 13 13 13 13 13 12 12 12 12 13 13 12 12 12 12 12 12 12 11 11 11 11 11 11 12
12 12 12 12 12 12 12 13 13 13 13 14 13 13 13 13 13 13 13 13 13 13 13 13 13 13 13 13 13 13 13 13 13 13 13 12 12 12 11 11 11 11
12 12 12 12 12 12 12 13 13 12 13 13 13 13 13 13 13 13 13 13 13 13 13 13 13 13 13 13 13 13 13 13 13 13 13 13 13 12 12 11 11 11
12 12 12 12 12 11 12 12 12 12 13 13 12 12 13 13 13 13 13 13 13 13 13 13 13 13 13 13 13 13 13 13 13 13 13 12 12 12 12 12 12 11
12 12 12 12 11 11 12 12 12 13 13 13 12 12 13 13 13 13 14 13 13 13 13 13 13 13 13 13 13 13 13 13 13 13 13 13 12 12 12 12 12 12
12 11 11 11 11 11 12 12 12 13 13 13 12 12 12 13 13 13 13 13 13 13 13 13 13 13 13 13 13 13 12 12 12 13 13 13 12 12 12 12 12 12
12 11 11 11 11 11 11 11 12 12 12 11 11 11 12 12 12 13 13 13 13 13 12 12 12 12 12 12 12 12 12 12 12 12 13 13 12 12 12 12 12 12
11 12 11 11 11 11 11 11 11 12 11 11 11 11 11 12 12 12 12 12 12 12 12 12 12 12 12 12 12 12 12 12 12 12 12 12 12 12 12 12 12 11
10 11 11 11 11 11 10 11 11 11 11 11 11 11 11 11 11 11 11 12 12 11 11 11 11 11 11 11 12 12 12 12 12 12 12 12 11 11 11 11 11 11
9 10 10 10 11 10 10 10 10 10 10 10 10 10 10 11 11 11 11 11 11 11 11 11 11 11 11 11 11 11 11 11 11 11 11 11 11 11 11 11 11 10
9 10 10 10 10 10 10 10 10 10 10 10 10 10 10 11 11 11 11 11 11 11 11 11 11 11 11 11 11 11 11 11 11 11 10 10 10 11 11 11 10 10
9 9 9 9 9 9 9 9 9 10 10 10 10 10 10 11 11 10 11 11 11 11 11 11 11 11 11 11 11 10 10 10 10 10 10 10 10 10 10 10 10 10
9 9 9 9 9 9 9 9 9 10 10 10 10 10 10 10 10 10 11 11 11 11 11 11 11 11 10 10 10 10 10 10 10 10 10 10 10 10 10 10 10 10
8 8 9 9 9 9 9 9 9 9 9 9 9 10 10 10 10 10 10 10 10 11 11 11 10 10 10 10 10 10 10 10 10 10 10 10 10 10 10 10 10 10
8 8 8 8 8 8 8 9 9 9 9 9 9 10 10 10 10 10 9 9 10 10 10 10 10 9 10 10 10 10 10 10 10 10 10 10 10 10 10 10 10 10
8 8 8 8 8 8 8 8 8 8 9 9 9 9 9 9 9 9 9 9 9 9 9 9 9 9 9 10 10 10 9 9 9 9 9 9 9 9 9 10 10 10
8 8 8 8 8 8 8 8 8 8 8 9 9 9 9 9 9 9 9 9 9 9 9 9 9 9 9 9 9 9 9 9 9 9 9 9 9 9 9 9 9 9
8 8 8 8 8 8 8 8 8 8 8 8 9 9 9 9 9 9 9 9 9 9 9 9 9 9 9 9 9 9 9 9 9 9 9 9 9 9 9 9 9 9
8 8 8 8 8 8 8 8 8 8 8 8 9 9 9 9 9 9 9 9 9 9 9 9 9 9 9 9 9 9 9 9 9 9 9 9 9 9 9 9 9 9
Height
1526 1528 1529 1530 1531 1532 1533 1533 1534 1535 1536 1537 1537 1538 1538 1539 1540 1540 1541 1542 1542 1543 1543 1544 1544 1545 1545 1545 1545 1546 1546 1547 1547 1547 1547 1548 1548 1549 1549 1550 1551 1552
1526 1528 1529 1530 1531 1532 1533 1534 1535 1535 1536 1537 1537 1538 1538 1539 1540 1540 1541 1542 1543 1544 1544 1544 1545 1545 1546 1546 1546 1547 1547 1547 1547 1547 1548 1548 1549 1549 1549 1550 1551 1552
1526 1528 1529 1530 1531 1532 1533 1534 1535 1535 1536 1537 1538 1538 1539 1539 1540 1540 1541 1542 1543 1544 1545 1545 1545 1546 1546 1547 1547 1548 1548 1548 1548 1548 1549 1549 1549 1550 1550 1550 1551 1552
1526 1528 1529 1530 1531 1532 1533 1534 1535 1535 1536 1537 1537 1538 1539 1539 1540 1540 1541 1542 1544 1545 1545 1546 1546 1546 1547 1547 1548 1548 1548 1549 1549 1549 1550 1550 1550 1551 1551 1551 1551 1552
1526 1527 1528 1529 1530 1531 1532 1533 1534 1535 1536 1537 1537 1538 1539 1539 1539 1540 1541 1542 1543 1544 1545 1546 1546 1547 1547 1548 1548 1549 1549 1549 1549 1550 1551 1551 1551 1552 1552 1552 1553 1553
1524 1526 1527 1528 1529 1530 1532 1533 1534 1535 1536 1537 1538 1538 1539 1539 1539 1540 1540 1542 1543 1544 1545 1546 1547 1547 1548 1548 1549 1549 1549 1550 1550 1550 1551 1552 1552 1552 1553 1554 1554 1555
1522 1525 1526 1528 1529 1530 1532 1533 1534 1535 1536 1537 1538 1539 1540 1540 1540 1540 1540 1541 1542 1544 1545 1546 1547 1548 1548 1549 1549 1550 1550 1550 1550 1551 1552 1552 1553 1554 1554 1555 1556 1556
1523 1525 1526 1528 1529 1531 1532 1533 1534 1535 1536 1537 1538 1539 1540 1540 1540 1540 1540 1541 1542 1543 1545 1546 1547 1548 1549 1549 1550 1550 1551 1551 1551 1552 1552 1553 1554 1555 1556 1556 1557 1558
1522 1525 1527 1529 1530 1531 1532 1533 1534 1535 1536 1537 1538 1539 1540 1540 1541 1541 1541 1541 1542 1543 1544 1546 1547 1548 1549 1550 1550 1551 1552 1552 1553 1553 1553 1554 1555 1556 1557 1557 1558 1559
1521 1524 1527 1529 1530 1531 1532 1533 1534 1535 1535 1537 1539 1540 1540 1541 1541 1541 1542 1542 1543 1544 1545 1546 1547 1548 1549 1551 1551 1552 1553 1553 1554 1554 1555 1556 1556 1557 1558 1558 1559 1560
1520 1523 1526 1528 1530 1531 1532 1532 1533 1534 1535 1537 1539 1540 1541 1541 1541 1541 1542 1543 1543 1544 1545 1546 1548 1549 1550 1551 1552 1553 1554 1554 1555 1555 1556 1557 1558 1558 1559 1559 1560 1560
1520 1522 1525 1527 1529 1531 1531 1532 1533 1534 1535 1537 1539 1540 1541 1541 1541 1542 1542 1543 1544 1545 1546 1547 1548 1549 1550 1551 1552 1553 1554 1555 1555 1556 1556 1557 1558 1559 1559 1559 1560 1560
1520 1521 1523 1525 1527 1529 1530 1531 1533 1534 1535 1537 1538 1539 1540 1541 1541 1542 1543 1544 1544 1545 1546 1547 1548 1549 1550 1551 1552 1553 1554 1554 1555 1556 1556 1557 1558 1559 1559 1560 1560 1560
1519 1521 1523 1524 1525 1527 1529 1531 1533 1534 1536 1537 1538 1539 1540 1541 1541 1542 1543 1544 1545 1546 1547 1548 1548 1549 1550 1551 1552 1553 1554 1554 1555 1555 1556 1557 1558 1558 1559 1559 1560 1560
1516 1518 1520 1522 1524 1526 1529 1531 1533 1534 1535 1536 1537 1539 1540 1541 1542 1542 1543 1543 1544 1545 1547 1548 1549 1550 1551 1551 1552 1553 1554 1554 1554 1555 1556 1557 1557 1558 1559 1559 1559 1560
1513 1515 1517 1520 1523 1526 1527 1529 1531 1533 1534 1536 1537 1538 1539 1540 1541 1542 1543 1543 1543 1544 1545 1547 1548 1549 1550 1551 1552 1553 1554 1554 1554 1554 1555 1556 1557 1557 1558 1558 1559 1559
1514 1515 1517 1519 1522 1524 1526 1528 1530 1532 1534 1535 1536 1537 1538 1539 1541 1542 1542 1542 1543 1543 1545 1546 1547 1548 1550 1551 1552 1553 1553 1553 1554 1554 1554 1554 1555 1556 1557 1557 1558 1558
1515 1517 1518 1519 1521 1523 1526 1528 1529 1531 1533 1534 1535 1536 1537 1538 1540 1540 1541 1541 1541 1542 1544 1545 1546 1547 1549 1550 1551 1552 1552 1553 1553 1553 1553 1554 1555 1555 1556 1556 1556 1556
1516 1517 1518 1520 1522 1524 1526 1528 1529 1531 1532 1533 1534 1536 1536 1537 1538 1538 1539 1540 1540 1541 1542 1543 1545 1546 1548 1549 1550 1551 1551 1551 1552 1552 1552 1553 1554 1554 1554 1554 1554 1554
1516 1518 1519 1521 1523 1525 1527 1528 1530 1531 1532 1533 1534 1535 1536 1537 1537 1538 1538 1539 1539 1540 1540 1541 1543 1545 1546 1548 1548 1549 1550 1549 1549 1550 1550 1551 1552 1552 1552 1552 1552 1552
1517 1518 1519 1520 1522 1525 1527 1529 1531 1532 1532 1532 1533 1534 1535 1536 1536 1537 1536 1537 1538 1538 1539 1539 1540 1542 1544 1545 1546 1547 1547 1547 1547 1548 1548 1548 1549 1550 1550 1550 1550 1550
1518 1519 1519 1520 1522 1524 1526 1528 1529 1530 1531 1531 1532 1533 1533 1534 1535 1535 1535 1536 1538 1538 1538 1538 1539 1541 1542 1543 1544 1544 1544 1545 1546 1546 1546 1546 1547 1548 1548 1548 1548 1547
1519 1520 1520 1521 1522 1524 1525 1526 1527 1528 1529 1530 1530 1531 1532 1532 1533 1534 1534 1535 1536 1536 1536 1536 1538 1540 1541 1541 1542 1542 1542 1542 1543 1543 1543 1544 1544 1545 1545 1545 1545 1544
1521 1521 1521 1522 1523 1524 1525 1526 1527 1528 1528 1529 1529 1530 1530 1531 1532 1532 1532 1533 1533 1534 1534 1535 1536 1538 1539 1539 1539 1539 1539 1540 1540 1540 1540 1541 1541 1542 1542 1542 1542 1541
1522 1523 1523 1523 1523 1524 1525 1526 1526 1527 1528 1529 1529 1530 1530 1530 1531 1531 1531 1531 1532 1532 1533 1533 1534 1535 1536 1536 1536 1537 1537 1537 1537 1537 1537 1537 1538 1539 1539 1538 1538 1538
1524 1524 1524 1524 1524 1524 1525 1526 1526 1527 1528 1528 1529 1529 1529 1530 1530 1530 1530 1531 1531 1531 1531 1531 1532 1532 1533 1533 1534 1534 1534 1534 1534 1534 1534 1535 1535 1535 1535 1535 1535 1535
Wind_Speed
18 15 13 11 11 10 8 8 7 6 4 2 1 3 4 4 5 6 6 7 7 6 5 3 1 6 8 7 7 6 7 7 7 8 7 7 7 8 8 9 9 10
17 14 12 11 11 10 9 8 7 5 2 2 3 4 6 5 5 5 6 7 7 7 6 4 2 7 8 7 7 7 8 9 9 8 7 7 8 8 8 9 10 11
16 14 11 10 11 11 11 10 7 5 3 4 5 6 7 7 6 6 6 8 9 7 6 4 3 8 9 8 7 7 9 10 9 9 9 8 8 8 8 10 11 13
15 12 10 10 12 13 13 11 9 8 6 7 8 8 8 8 7 7 7 10 10 8 6 3 4 8 9 9 9 9 9 10 10 9 9 9 9 7 8 11 13 15
14 12 11 12 14 14 14 13 11 11 10 10 10 10 10 10 9 8 8 9 9 7 6 5 5 7 8 9 11 10 9 9 9 9 9 9 9 8 8 10 13 16
16 15 14 14 15 15 15 14 12 11 10 9 10 10 10 11 10 9 9 9 9 8 8 7 7 8 9 9 11 11 10 9 9 9 9 10 9 8 9 10 12 15
17 15 14 15 16 15 15 13 10 9 8 8 8 9 10 11 12 11 11 10 10 9 9 8 8 9 10 10 11 11 10 9 9 9 11 12 11 10 9 9 11 13
17 15 15 16 16 15 13 12 10 8 7 7 7 9 10 11 12 12 12 12 12 11 10 10 10 12 12 12 12 11 11 10 9 9 11 12 12 12 11 10 10 11
17 15 16 16 15 14 13 12 11 8 6 6 7 9 11 12 13 13 14 14 14 14 14 13 13 14 14 14 14 13 12 11 11 10 9 9 10 11 12 12 12 11
18 17 17 16 16 15 13 12 12 9 6 5 6 8 11 13 14 14 15 16 16 16 16 16 16 15 15 14 14 13 13 12 11 10 9 8 8 9 11 13 13 13
20 20 19 19 18 15 13 13 12 9 7 7 7 8 12 14 15 15 16 17 17 17 18 18 17 16 15 15 13 13 12 11 10 9 9 8 8 8 9 11 13 13
24 23 23 23 21 17 15 14 13 11 11 11 10 9 13 15 16 17 17 18 18 18 19 19 18 18 16 15 14 14 13 12 11 11 10 9 9 10 10 11 12 12
26 25 25 26 24 20 17 15 15 15 15 14 12 12 15 17 17 17 18 18 18 18 18 19 19 19 18 16 15 15 14 14 13 12 12 11 11 11 12 13 13 13
27 26 26 26 23 18 17 17 19 19 17 15 14 14 15 17 17 17 17 17 16 16 16 17 17 18 18 17 16 15 15 14 14 13 13 12 12 12 13 13 13 13
31 29 28 26 21 19 21 23 23 19 17 16 16 15 16 17 16 16 17 17 16 15 14 14 15 15 16 17 16 16 15 14 14 14 14 14 14 13 13 12 11 11
30 29 28 26 22 21 22 25 25 20 18 17 16 16 17 19 18 17 17 17 17 15 14 14 13 13 14 14 15 16 15 14 14 14 14 15 15 14 13 12 11 11
24 24 23 22 22 22 23 25 25 22 20 19 17 17 19 21 20 19 18 17 17 16 15 15 14 13 13 13 14 14 15 14 14 14 14 15 14 14 13 13 14 14
19 20 20 20 22 23 24 25 25 24 22 20 18 18 20 22 22 20 18 18 18 18 17 17 17 16 16 16 16 16 16 16 16 17 18 16 15 15 16 16 17 17
13 17 19 21 23 23 24 26 25 25 23 20 20 20 20 21 22 21 19 18 19 19 18 17 16 17 18 19 20 19 18 18 19 20 21 19 16 18 19 20 20 21
11 12 13 16 21 24 24 23 22 23 22 19 19 20 20 20 20 20 20 20 20 21 20 17 16 16 18 20 20 19 19 20 20 21 22 21 20 20 21 22 23 23
11 10 10 12 16 19 19 18 19 20 19 17 16 18 19 18 18 19 19 19 20 22 21 19 18 18 20 21 20 19 20 21 22 22 22 22 21 21 22 22 23 24
12 12 13 14 14 14 13 13 15 16 15 14 15 16 17 17 17 18 16 14 16 19 20 22 23 22 22 21 20 21 22 23 22 23 23 23 22 22 22 22 24 25
15 14 14 14 14 14 14 12 12 11 11 11 12 14 15 15 16 16 14 12 14 16 17 19 20 19 20 21 21 22 23 23 22 23 24 25 25 24 24 24 25 27
14 14 14 13 13 13 12 12 11 11 10 10 10 11 12 12 11 11 10 10 11 11 12 13 11 10 14 18 19 21 24 24 24 25 26 26 27 26 26 27 27 28
10 10 10 10 10 10 9 9 9 9 9 9 9 9 10 9 9 9 8 9 9 9 10 9 8 7 10 14 16 18 21 22 24 25 27 27 28 28 27 28 28 28
3 4 4 4 4 4 4 4 5 6 6 6 7 7 8 8 9 9 9 9 10 10 10 10 9 8 9 10 12 13 16 18 21 23 25 26 26 27 27 27 27 27
Wind_Direction
206 210 217 211 205 208 206 202 199 186 168 151 193 251 241 205 192 200 215 226 233 241 255 293 167 175 179 170 164 166 167 170 174 175 172 167 172 180 184 186 184 184
203 209 210 204 202 207 207 204 195 182 187 224 228 235 237 232 219 213 219 219 222 233 250 287 256 184 183 177 169 160 154 160 162 158 157 158 162 169 175 181 179 174
200 203 202 202 205 205 203 195 182 177 198 205 201 203 210 222 226 221 212 206 212 228 245 273 229 188 187 185 180 169 160 162 159 150 149 150 151 157 161 166 166 162
193 197 202 208 207 203 199 188 173 168 172 173 172 175 185 194 203 206 202 201 211 226 231 227 189 185 188 187 187 182 170 168 163 156 154 149 144 147 149 153 155 155
187 196 205 205 201 199 193 183 172 163 158 162 166 170 180 184 184 187 189 194 202 207 196 174 160 167 172 176 184 185 177 171 169 167 164 152 145 145 144 147 153 154
187 196 204 202 198 195 189 180 172 162 153 154 164 171 179 183 179 173 173 177 180 181 179 170 159 159 159 164 176 182 179 174 173 174 172 159 151 151 149 153 161 160
188 199 204 199 192 188 185 177 167 161 151 147 160 173 178 181 178 169 163 164 168 173 177 176 173 167 161 160 166 171 171 171 173 175 176 171 164 163 161 165 173 171
191 202 202 194 185 181 179 173 169 170 160 151 165 178 178 179 178 170 163 161 163 167 170 171 171 166 161 158 158 158 157 155 156 160 170 176 178 178 176 175 177 178
192 198 196 188 181 178 177 174 176 177 167 166 181 185 183 180 176 172 168 166 166 165 164 164 164 161 158 155 152 150 148 145 144 146 156 170 181 187 188 187 185 181
191 192 191 188 186 185 181 181 185 180 173 195 207 200 194 184 177 175 175 174 172 169 165 164 164 162 159 157 153 151 151 150 149 147 150 158 170 181 188 193 197 197
190 188 188 189 191 188 181 185 190 181 187 225 237 218 206 193 180 178 181 180 177 172 169 168 168 168 166 164 162 162 163 164 164 163 164 167 171 179 187 195 203 210
190 187 187 191 192 184 178 187 192 186 199 228 242 228 212 200 187 185 187 185 181 177 175 175 176 177 177 175 175 176 178 180 183 184 185 188 190 192 197 201 205 212
192 190 190 193 189 178 177 187 192 198 212 230 241 230 214 205 197 193 191 188 187 186 185 184 185 186 186 187 187 189 191 194 197 199 200 205 208 209 209 211 214 217
197 196 196 196 194 193 200 200 195 203 219 230 236 230 216 208 204 198 195 192 192 195 195 194 196 198 199 199 199 200 203 207 210 212 214 219 224 225 223 221 222 226
198 199 201 206 215 219 214 202 196 208 223 224 228 227 217 212 207 202 200 198 195 196 199 201 204 207 211 214 214 214 216 220 224 227 228 231 236 239 239 236 234 238
198 197 198 204 212 211 199 190 194 209 220 217 221 222 216 213 210 207 207 203 199 198 200 206 209 212 217 222 222 224 227 232 236 239 238 237 239 242 243 242 245 251
196 192 193 195 199 201 197 193 198 208 212 212 216 218 216 213 210 212 213 209 206 206 210 215 219 220 225 227 228 230 235 241 247 251 247 240 239 245 246 246 249 256
190 189 194 198 200 202 201 199 202 206 208 211 214 213 212 211 210 212 214 212 212 215 221 227 230 233 235 236 237 237 239 245 251 253 251 246 247 255 258 257 257 258
181 191 197 200 202 202 201 203 205 207 209 212 211 208 208 209 211 213 213 214 217 218 224 232 235 237 238 237 239 242 246 251 252 250 253 257 258 259 261 263 262 260
154 178 185 188 194 198 201 203 203 206 209 209 207 207 209 211 215 218 218 220 221 221 223 228 230 233 236 238 241 246 249 253 253 249 252 257 257 256 259 262 262 261
130 138 138 149 170 188 199 201 201 207 211 209 207 210 213 216 220 226 227 225 226 227 228 228 228 231 237 240 243 246 247 252 257 258 258 259 258 257 258 259 260 260
113 123 125 124 132 150 167 178 191 203 209 211 213 216 220 224 228 237 243 235 232 237 239 237 236 236 240 243 244 246 250 253 258 263 265 266 265 263 260 260 260 261
107 118 125 124 125 130 136 144 160 178 185 191 199 207 216 222 226 234 242 236 232 238 244 249 249 241 240 245 247 251 257 260 260 262 263 265 264 262 261 260 260 261
104 113 122 129 134 133 131 134 143 154 161 167 174 182 191 200 207 214 221 224 230 235 242 255 262 243 236 243 248 252 257 260 261 261 262 262 262 261 260 260 260 261
94 102 113 124 133 133 132 136 144 151 157 164 172 178 183 190 195 196 200 209 217 223 231 246 253 241 240 247 251 253 257 259 260 262 262 263 264 264 264 263 263 263
86 91 98 110 124 134 138 144 153 165 175 183 192 200 207 211 214 214 214 219 224 228 234 242 243 240 242 250 256 260 262 261 261 262 264 266 266 266 266 265 264 263